This demonstration page uses our WeatherBlox Daily Observations layout. Learn more.

Left ArrowRight Arrow

34.74481, -87.66753

Hourly Observations for December 3, 2022

Temp ( °F °C ) Dew Point ( °F °C ) Humidity (%) Winds ( mph kmh ) Pressure ( in mb ) Visibility ( mi km ) Precip ( " mm )
12:53 am 00:53 Cloudy with Light Rain 62 16.7 56 13.3 80 80 S 10 17 30.19 1022 10 16 0.01 0.13
1:14 am 01:14 Cloudy with Light Rain 61 16.1 57 13.9 87 87 S 10 17 30.18 1022 5 8 0.01 0.25
1:24 am 01:24 Cloudy with Light Rain 61 16.1 57 13.9 87 87 S 13 20 30.18 1022 10 16 0.01 0.25
1:53 am 01:53 Cloudy 61 16.1 57 13.9 87 87 S 13 20 30.19 1022 7 11 0.01 0.25
2:08 am 02:08 Cloudy 61 16.1 58 14.4 90 90 S 15 24 30.18 1022 9 14 0.00 0.00
2:53 am 02:53 Cloudy 62 16.7 58 14.4 86 86 SSW 13 20 30.17 1022 10 16 0.00 0.00
3:53 am 03:53 Cloudy with Light Rain 63 17.2 60 15.6 90 90 WSW 10 17 30.19 1022 8 13 0.01 0.25
4:05 am 04:05 Cloudy with Heavy Rain 63 17.2 60 15.6 90 90 W 8 13 30.20 1023 3 4 0.06 1.52
4:20 am 04:20 Cloudy with Light Rain 63 17.2 61 16.1 93 93 SW 7 11 30.20 1023 5 8 0.09 2.29
4:37 am 04:37 Cloudy with Light Rain 63 17.2 61 16.1 93 93 SSW 7 11 30.21 1023 8 13 0.09 2.29
4:53 am 04:53 Cloudy 63 17.2 61 16.1 93 93 SSW 6 9 30.21 1023 10 16 0.10 2.54
5:11 am 05:11 Cloudy 63 17.2 61 16.1 93 93 SSW 5 7 30.21 1023 10 16 0.00 0.00
5:53 am 05:53 Cloudy 63 17.2 61 16.1 93 93 SW 5 7 30.22 1023 10 16 0.01 0.25
6:05 am 06:05 Cloudy 63 17.2 61 16.1 93 93 WSW 3 6 30.23 1024 10 16 0.00 0.00
6:36 am 06:36 Cloudy with Light Rain 62 16.7 61 16.1 96 96 WSW 3 6 30.25 1024 4 6 0.02 0.51
6:53 am 06:53 Cloudy 63 17.2 61 16.1 93 93 SW 3 6 30.25 1024 10 16 0.02 0.51
7:53 am 07:53 Cloudy 63 17.2 62 16.7 97 97 Calm 30.26 1025 7 11 0.00 0.00
8:04 am 08:04 Cloudy with Mist and Fog 63 17.2 62 16.7 97 97 Calm 30.27 1025 6 10 0.00 0.00
8:35 am 08:35 Cloudy 65 18.3 62 16.7 90 90 NW 6 9 30.28 1025 10 16 0.01 0.25
8:53 am 08:53 Cloudy 65 18.3 63 17.2 93 93 WNW 3 6 30.27 1025 10 16 0.01 0.25
9:53 am 09:53 Cloudy 67 19.4 62 16.7 84 84 NNW 7 11 30.29 1026 10 16 0.00 0.00
10:53 am 10:53 Mostly Cloudy 68 20 60 15.6 76 76 NW 8 13 30.29 1026 10 16 0.00 0.00
11:53 am 11:53 Mostly Cloudy 69 20.6 58 14.4 68 68 NW 6 9 30.27 1025 10 16 0.00 0.00
12:53 pm 12:53 Cloudy 70 21.1 56 13.3 61 61 NW 10 17 30.27 1025 10 16 0.00 0.00
1:53 pm 13:53 Cloudy 67 19.4 54 12.2 63 63 NW 13 20 30.28 1025 10 16 0.00 0.00
2:53 pm 14:53 Cloudy 68 20 54 12.2 61 61 NW 6 9 30.28 1025 10 16 0.00 0.00
3:53 pm 15:53 Mostly Cloudy 63 17.2 52 11.1 67 67 N 12 19 30.31 1026 10 16 0.00 0.00
4:12 pm 16:12 Cloudy 61 16.1 50 10 67 67 N 8 13 30.33 1027 10 16 0.00 0.00
4:53 pm 16:53 Mostly Cloudy 58 14.4 47 8.3 67 67 N 8 13 30.34 1027 10 16 0.00 0.00
5:43 pm 17:43 Cloudy 56 13.3 42 5.6 60 60 NNE 10 17 30.37 1028 10 16 0.00 0.00
5:53 pm 17:53 Cloudy 55 12.8 41 5 59 59 NE 9 15 30.36 1028 10 16 0.00 0.00
6:53 pm 18:53 Cloudy 53 11.7 37 2.8 54 54 NNE 8 13 30.38 1029 10 16 0.00 0.00
7:53 pm 19:53 Mostly Clear 49 9.4 35 1.7 59 59 NNE 6 9 30.39 1029 10 16 0.00 0.00
8:53 pm 20:53 Clear 48 8.9 35 1.7 61 61 NE 8 13 30.38 1029 10 16 0.00 0.00
9:53 pm 21:53 Clear 46 7.8 35 1.7 65 65 VRB 3 6 30.38 1029 10 16 0.00 0.00
10:53 pm 22:53 Clear 44 6.7 34 1.1 67 67 NE 6 9 30.37 1029 10 16 0.00 0.00
11:53 pm 23:53 Clear 43 6.1 33 0.6 68 68 NNE 8 13 30.35 1028 10 16 0.00 0.00

Powered by AerisWeather